Погода в Бродах

Украина / Львовская область     50°04′40″N   25°09′14″E
В апреле 2022 года жителям России запретили посещать сайт meteo.paraplan.net по решению Генеральной прокуратуры. Аудитория сайта уменьшилась в 10 раз. Владельцы сайта не видят смысла в поддержке погодного сервера в таких условиях. Сайт будет закрыт в октябре.
темп.,
°C
ветер,
м/с
пор.,
м/с
влажн.,
%
обл.,
%
осадки,
мм/ч
давл.,
гПа
погр.,
м
30 сентября, пт
пт3000:00+11ссз1297100 0.2 100849
03:00+10ссз229897 0.2 101034
06:00+9ссв229869 0.0 101179
09:00+10всв2293100 0.0 1012131
12:00+15вюв2277100 0.0 1013426
15:00+17вюв3572100 0.0 1012791
18:00+14ю41092100 3.4 1012368
21:00+14ююз399097 5.4 1013217
1 октября, сб
сб100:00+13зюз41094100 0.1 1014325
03:00+9з3998100 0.1 1016253
06:00+9зюз2398100 0.0 101697
09:00+10ююз2494100 1.4 1016144
12:00+13ююз41090100 0.3 1016451
15:00+13юз3794100 0.8 1015440
18:00+13юз1197100 1.4 101320
21:00+12ю1197100 2.5 101212
2 октября, вс
вс200:00+13ю2598100 5.4 1010170
03:00+12зсз2599100 6.0 1010232
06:00+11зсз71294100 1.1 1010780
09:00+10зсз61192100 2.6 1011664
12:00+12зсз7118388 0.1 1012929
15:00+12зсз7128695 0.5 1012915
18:00+11зсз7128719 1.5 1012838
21:00+10зсз61285100 1.6 1013758
3 октября, пн
пн300:00+9з71391100 0.3 1013652
03:00+9зсз61394100 0.6 1013562
06:00+9зсз61391100 0.2 1013614
09:00+9зсз7139087 0.4 1014793
12:00+10зсз81182100 0.3 1014970
15:00+10зсз61185100 0.4 10151171
18:00+10з61184100 0.1 1015863
21:00+9з61291100 0.4 1016817
4 октября, вт
вт400:00+9з61387100 0.3 1015687
03:00+8зюз61394100 1.3 1014689
06:00+9з71394100 2.2 1014858
09:00+10з7138395 4.4 1014773
12:00+10зсз6108594 1.7 1015765
15:00+11сз488378 3.3 1015854
18:00+10сз487961 0.2 1017469
21:00+9з2684100 0.3 1018210